Regional Weather Roundup
Issued by NWS Newport/Morehead, NC

Current Version | Previous Version | Graphics & Text | Print | Product List | Glossary Off
Versions: 1 2 3 4 5 6 7 8 9 10 11 12 13 14 15 16 17 18 19 20 21 22 23 24 25 26 27 28 29 30 31 32 33 34 35 36 37 38 39 40 41 42 43 44 45 46 47 48 49 50

000
ASUS42 KMHX 290410
RWRMHX
WEATHER ROUNDUP FOR EASTERN NORTH CAROLINA
NATIONAL WEATHER SERVICE NEWPORT/MOREHEAD CITY NC
1200 AM EDT FRI AUG 29 2014

NOTE: "FAIR" INDICATES FEW OR NO CLOUDS BELOW 12,000 FEET
WITH NO SIGNIFICANT WEATHER AND/OR OBSTRUCTIONS TO VISIBILITY

NCZ015>017-031-032-045>047-102-103-290500-
NORTH COAST

CITY           SKY/WX    TMP DP  RH WIND       PRES   REMARKS
EDENTON        MOCLDY    75  72  88 SE3       30.03R
ELIZABETH CITY MOCLDY    76  72  87 CALM      30.03R
KITTY HAWK     PTCLDY    75  70  83 CALM      30.02S
MANTEO         PTCLDY    74  71  87 E3        30.03S

$$

NCZ045>047-081-094-103-104-290500-
CENTRAL COAST

CITY           SKY/WX    TMP DP  RH WIND       PRES   REMARKS
FRISCO         MOCLDY    75  75 100 E5        30.03R
SWANQUARTER      N/A     75 N/A N/A E1        30.00R

$$

NCZ095-097-098-100-101-290500-
SOUTHERN COAST

CITY           SKY/WX    TMP DP  RH WIND       PRES   REMARKS
BEAUFORT       PTCLDY    80  72  76 SW8       30.02S
CEDAR ISLAND     N/A     79 N/A N/A S6        30.06S
JACKSONVILLE   CLEAR     75  69  81 SW5       30.02R
NEWPORT        NOT AVBL
PINEY ISLAND   PTCLDY    78  74  87 S3        30.02R
WILMINGTON     CLEAR     76  70  82 SW6       30.03R


$$

NCZ011>013-027>030-043-044-078>080-089-090>093-098-290500-
COASTAL PLAIN

CITY           SKY/WX    TMP DP  RH WIND       PRES   REMARKS
AHOSKIE        CLEAR     74  72  93 CALM      30.03R
CLINTON        NOT AVBL
ELIZABETHTOWN  CLEAR     75  68  78 S3        30.03R
GOLDSBORO      CLEAR     76  76  98 E1        30.00R
GREENVILLE     CLEAR     77  73  88 CALM      30.03R
HAVELOCK       MOCLDY    77  72  84 SW5       30.03R
KENANSVILLE    CLEAR     74  70  86 CALM      30.03S
KINSTON        CLEAR     74  73  95 CALM      30.03R
NEW BERN       PTCLDY    76  70  82 SW5       30.03R
RICHLANDS      CLEAR     73  66  78 SW5       30.03R
ROANOKE RAPIDS NOT AVBL
ROCKY MOUNT    CLEAR     74  73  97 CALM      30.01S FOG
WASHINGTON     CLEAR     74  73  95 CALM      30.02R
WHITEVILLE     CLEAR     74  67  78 CALM      30.03R

$$

AMZ130-135-150-152-154-156-158-170-250-252-270-ANZ085-086-088-633-658-670-290500-
MARINE OBSERVATIONS

STATION/POSITION TIME  TEMP    WIND        PRES    WAVE   SWELL
                       AIR SEA DIR/SP/G            HT/PER HT/PER
                 (UTC) (F)     (DEG/KT/KT) (MB)    (FT/S) (FT/S)
CHESAPEAKE LIGHT 0300   76     200/  5/  5 1017.7
BUOY 44014       0400   76 76   20/  4/  4 1016.7    5/10   5/10
DUCK             0400   77 78  130/  7/  8 1016.2
2E DUCK          0400                        N/A     3/10   2/11
OREGON INLET     0400   76 80  120/  4/  6 1016.8
BUOY 44095       0400      77                N/A     3/10   2/11
20E OREGON INLET NOT AVBL
HATTERAS CG      0400   78 80   90/  3/  5 1017.2
DIAMOND BUOY     0400   80     340/  4/  6 1016.8    5/ 9   5/ 9
CAPE LOOKOUT     0300   80     230/  6/  8 1016.4
BEAUFORT LAB     0400   80 81  230/  4/  8 1016.1
30 SE NEW RIVER  0400   82 81  230/ 12/ 16 1016.9    4/10   3/10
5 SE WRIGHTSVILL 0400   78 81  230/ 14/ 16   N/A
BUOY 41002       0309   81 82  230/  4/  6 1018.6    5/ 9   5/ 9
BUOY 41004       0400   81 83  170/  8/ 10 1016.9    4/ 9   3/ 9

$$


USA.gov is the U.S. government's official web portal to all federal, state and local government web resources and services.